Regional Weather Roundup
Issued by NWS State College, PA

Home | Current Version | Previous Version | Text Only | Print | Product List | Glossary On
Versions: 1 2 3 4 5 6 7 8 9 10 11 12 13 14 15 16 17 18 19 20 21 22 23 24 25 26 27 28 29 30 31 32 33 34 35 36 37 38 39 40 41 42 43 44 45 46 47 48 49 50
000
ASUS41 KCTP 180903
RWRCTP

REGIONAL WEATHER ROUNDUP
NATIONAL WEATHER SERVICE STATE COLLEGE PA
500 AM EDT THU SEP 18 2014

Note: "fair" indicates few or no clouds below 12,000 feet with no
significant weather and/or obstructions to visibility.

* = STATION THAT DOES NOT REPORT PRECIPITATION /E.G. RAIN...SNOW...ETC/
    THUNDER OR FOG.

PAZ002>004-007>009-013>016-020>023-029>032-181000-
WESTERN PENNSYLVANIA

CITY           SKY/WX    TMP DP  RH WIND       PRES   REMARKS
ERIE           CLEAR     49  44  83 S6        30.01R
MEADVILLE      CLEAR     47  44  90 S3        30.02R
FRANKLIN*      PTCLDY    45  39  81 CALM      30.03S
NEW CASTLE     FAIR      44  44 100 CALM      30.04R FOG
BEAVER COUNTY  NOT AVBL
BUTLER*        CLOUDY    48  45  87 CALM      30.04R
PITTSBURGH INT MOCLDY    53  50  89 N5        30.01R
PITTSBURGH     MOCLDY    53  47  79 N3        30.00R
INDIANA*       CLOUDY    46  46 100 CALM      30.05R
LATROBE        PTCLDY    48  48 100 MISG      30.02R
WASHINGTON CO* CLOUDY    46  45  93 CALM      30.01S
$$

PAZ004>006-010>012-017>019-024>028-033>037-041-042-045-046-049>053-181000-
CENTRAL PENNSYLVANIA

CITY           SKY/WX    TMP DP  RH WIND       PRES   REMARKS
BRADFORD       MOCLDY    40  37  89 CALM      30.02R
DUBOIS         PTCLDY    46  44  93 CALM      30.01R
CLEARFIELD     MOCLDY    44  43  96 CALM      30.02R
JOHNSTOWN      CLOUDY    51  47  86 CALM      30.00S
ALTOONA        MOCLDY    49  48  97 CALM      30.00R FOG
STATE COLLEGE  MOCLDY    49  48  97 CALM      30.00R
WILLIAMSPORT   CLOUDY    49  46  90 N3        29.99R
SELINSGROVE    CLOUDY    48  46  93 NW3       30.00R FOG
FT INDIANTOWN  CLOUDY    48  48 100 CALM      29.99R
CAPITAL CITY   CLOUDY    53  49  86 SW3       29.99R
HARRISBURG     MOCLDY    55  49  80 CALM      29.98R
YORK           CLOUDY    52  50  93 CALM      29.98S
$$

PAZ038>040-043-044-047-048-054-055-060>062-067>071-181000-
EASTERN PENNSYLVANIA

CITY           SKY/WX    TMP DP  RH WIND       PRES   REMARKS
SCRANTON       MOCLDY    47  42  83 E3        29.99R
MOUNT POCONO   PTCLDY    41 N/A N/A CALM      29.99R
ALLENTOWN      PTCLDY    46  44  93 CALM      29.99R
QUAKERTOWN*    MOSUNNY   45  41  87 CALM      29.99R
READING        CLEAR     50  47  89 CALM      29.98R
LANCASTER      CLOUDY    50  47  89 CALM      29.99R
COATESVILLE    MOSUNNY   57  50  77 W3        29.99S
POTTSTOWN      CLOUDY    48  46  93 CALM      30.00R
BLUE BELL      CLEAR     46  45  93 CALM      29.98R
DOYLESTOWN     CLEAR     47  47 100 CALM      29.97S
WILLOW GROVE   NOT AVBL
NORTH PHILA    CLEAR     53  49  86 CALM      29.99R
PHILADELPHIA   CLEAR     58  51  78 NW5       29.98R
$$


USA.gov is the U.S. government's official web portal to all federal, state and local government web resources and services.